Laredo International Airport Laredo US
ICAO: KLRD
IATA: LRD
Category: Medium
Scheduled Services: Yes

Elevation: 508 ft
TransAlt. 18000 ft.

Airport Communications:
ATIS:125.775
HOUSTON CNTR:127.8
CTAF:120.1
GND:121.8
SAN ANGELO RDO:122.3
TWR:120.1
UNICOM:122.95

KLRD Zoom In..

If you have problems with the map follow the link
https://www.worldairports.se/pages/airport.php?
ICAO=KLRD

Runways:

(A) RW 14 length 5927 ft width 150 ft
---- / hdg 139

(B) RW 17L length 8236 ft width 150 ft
---- / hdg 175

(C) RW 17R length 8743 ft width 150 ft
ILS 111.90 / hdg 175

(D) RW 32 length 5927 ft width 150 ft
---- / hdg 319

(E) RW 35L length 8743 ft width 150 ft
---- / hdg 355

(F) RW 35R length 8236 ft width 150 ft
---- / hdg 355

Location; KLRD
Day. 19 / Time. 12.56 Zulu
* Altimeter: 30.14
* Temperature: 11° c. 51.8°f.
* Wind from: 020° Speed 09 kn.
Dewpoint: 09° c.
Visibility: 9 Statute Miles.
Clouds: Overcast 600 ft.

KLRD 191256Z 02009KT 9SM OVC006 11/09 A3014 RMK AO2 CIG 006V009 SLP224 T01060094


Wind From 020°
Speed 09 kn.

 
 
jpsmedia.com for Web Design worldairports.se 2018   terms of use